Darstellungsparameter: Aktuell verwendete Einstellungen:
Skalierung der Graphiken ... ?
xyx+y,   Skalierungsfaktor:      Skalierung: Modus: x, Faktor: 1
Darstellungszeitraum ... ?
Vom - - bis: - -   Zeitraum: 26.04.2020 - 27.04.2020
Min/Max/Avg-Anzeige ... ?
Zeige MMA aktuell
Zeige MMA Monat
Zeige MMA alles
Zeige --A aktuell
Zeige --A Monat
Zeige --A alles
Keine MMA-Anzeige
MMA:
Keine MMA-Graphiken
MMA-Basis: 26.04.2020 - 27.04.2020
Quicknavigation für Darstellung... ?
Tage:      1T, 2T, 3T, 5T -1T -2T -3T -5T +1T +2T +3T +5T
Wochen: 1W, 2W, 3W -1W -2W -3W +1W +2W +3W
Monate: 1M, 3M, 6M -1M -3M -6M +1M +3M +6M
Jahre:    1J, 3J, 5J, 10J -1J -3J -5J -10J +1J +3J +5J +10J
Nutze für die Darstellung ... ?
Originaldaten oder Mittelwerte auf ...
Stundenbasis Tagesbasis Wochenbasis
Monatsbasis Jahresbasis      Datenbasis: Original-Daten
Darstellen als:
Statistik (Auto) Statistik J:M      Darstellung:
Zur Graphik,    zurück zur Übersicht aller Sensoren.
 
Tabellarische Datenbersicht: ?
 
Sensor: Nr:Datum:Temp:Feuchte:Taupunkt:
Aussen-T/F 1 26-04-2020 00:00:00 8.3 C 74 % 3.95 C
2 26-04-2020 00:05:00 8.1 C 75 % 3.94 C
3 26-04-2020 00:10:00 7.9 C 76 % 3.94 C
4 26-04-2020 00:15:00 7.8 C 77 % 4.03 C
5 26-04-2020 00:20:00 7.6 C 78 % 4.02 C
6 26-04-2020 00:25:00 7.4 C 79 % 4 C
7 26-04-2020 00:30:00 7.3 C 79 % 3.91 C
8 26-04-2020 00:35:00 7.2 C 79 % 3.81 C
9 26-04-2020 00:40:00 7.1 C 80 % 3.89 C
10 26-04-2020 00:45:00 7 C 80 % 3.79 C
11 26-04-2020 00:50:00 6.9 C 81 % 3.87 C
12 26-04-2020 00:55:00 6.8 C 81 % 3.77 C
13 26-04-2020 01:00:00 6.6 C 82 % 3.75 C
14 26-04-2020 01:05:00 6.6 C 82 % 3.75 C
15 26-04-2020 01:10:00 6.4 C 82 % 3.56 C
16 26-04-2020 01:15:00 6.3 C 83 % 3.63 C
17 26-04-2020 01:20:00 6.2 C 83 % 3.53 C
18 26-04-2020 01:25:00 6.2 C 83 % 3.53 C
19 26-04-2020 01:30:00 6.1 C 84 % 3.61 C
20 26-04-2020 01:35:00 6 C 84 % 3.51 C
21 26-04-2020 01:40:00 5.9 C 84 % 3.41 C
22 26-04-2020 01:45:00 5.8 C 84 % 3.31 C
23 26-04-2020 01:50:00 5.7 C 85 % 3.38 C
24 26-04-2020 01:55:00 5.7 C 85 % 3.38 C
25 26-04-2020 02:00:00 5.6 C 85 % 3.28 C
Sensor: Nr:Datum:Temp:Feuchte:Taupunkt:
Aussen-T/F 26 26-04-2020 02:05:00 5.5 C 85 % 3.18 C
27 26-04-2020 02:10:00 5.4 C 86 % 3.25 C
28 26-04-2020 02:15:00 5.4 C 86 % 3.25 C
29 26-04-2020 02:20:00 5.3 C 86 % 3.15 C
30 26-04-2020 02:25:00 5.3 C 87 % 3.32 C
31 26-04-2020 02:30:00 5.3 C 87 % 3.32 C
32 26-04-2020 02:35:00 5.2 C 87 % 3.22 C
33 26-04-2020 02:40:00 5.2 C 87 % 3.22 C
34 26-04-2020 02:45:00 5.2 C 87 % 3.22 C
35 26-04-2020 02:50:00 5.3 C 87 % 3.32 C
36 26-04-2020 02:55:00 5.2 C 87 % 3.22 C
37 26-04-2020 03:00:00 5.2 C 87 % 3.22 C
38 26-04-2020 03:05:00 5.1 C 87 % 3.12 C
39 26-04-2020 03:10:00 4.9 C 87 % 2.92 C
40 26-04-2020 03:15:00 4.9 C 88 % 3.08 C
41 26-04-2020 03:20:00 4.8 C 88 % 2.99 C
42 26-04-2020 03:25:00 4.8 C 88 % 2.99 C
43 26-04-2020 03:30:00 4.7 C 88 % 2.89 C
44 26-04-2020 03:35:00 4.7 C 88 % 2.89 C
45 26-04-2020 03:40:00 4.6 C 89 % 2.95 C
46 26-04-2020 03:45:00 4.6 C 89 % 2.95 C
47 26-04-2020 03:50:00 4.5 C 89 % 2.85 C
48 26-04-2020 03:55:00 4.4 C 89 % 2.75 C
49 26-04-2020 04:00:00 4.4 C 89 % 2.75 C
50 26-04-2020 04:05:00 4.4 C 89 % 2.75 C
Sensor: Nr:Datum:Temp:Feuchte:Taupunkt:
Aussen-T/F 51 26-04-2020 04:10:00 4.3 C 89 % 2.65 C
52 26-04-2020 04:15:00 4.2 C 89 % 2.55 C
53 26-04-2020 04:20:00 4.1 C 89 % 2.45 C
54 26-04-2020 04:25:00 4 C 89 % 2.36 C
55 26-04-2020 04:30:00 3.9 C 90 % 2.41 C
56 26-04-2020 04:35:00 3.9 C 90 % 2.41 C
57 26-04-2020 04:40:00 3.9 C 90 % 2.41 C
58 26-04-2020 04:45:00 3.8 C 91 % 2.47 C
59 26-04-2020 04:50:00 3.8 C 91 % 2.47 C
60 26-04-2020 04:55:00 3.7 C 91 % 2.37 C
61 26-04-2020 05:00:00 3.7 C 91 % 2.37 C
62 26-04-2020 05:05:00 3.7 C 91 % 2.37 C
63 26-04-2020 05:10:00 3.7 C 91 % 2.37 C
64 26-04-2020 05:15:00 3.6 C 91 % 2.27 C
65 26-04-2020 05:20:00 3.6 C 91 % 2.27 C
66 26-04-2020 05:25:00 3.5 C 91 % 2.17 C
67 26-04-2020 05:30:00 3.4 C 91 % 2.07 C
68 26-04-2020 05:35:00 3.4 C 92 % 2.23 C
69 26-04-2020 05:40:00 3.3 C 92 % 2.13 C
70 26-04-2020 05:45:00 3.3 C 92 % 2.13 C
71 26-04-2020 05:50:00 3.3 C 91 % 1.98 C
72 26-04-2020 05:55:00 3.2 C 92 % 2.03 C
73 26-04-2020 06:00:00 3.1 C 92 % 1.93 C
74 26-04-2020 06:05:00 3 C 92 % 1.83 C
75 26-04-2020 06:10:00 3 C 92 % 1.83 C
Sensor: Nr:Datum:Temp:Feuchte:Taupunkt:
Aussen-T/F 76 26-04-2020 06:15:00 3 C 92 % 1.83 C
77 26-04-2020 06:20:00 2.9 C 92 % 1.73 C
78 26-04-2020 06:25:00 2.9 C 92 % 1.73 C
79 26-04-2020 06:30:00 2.9 C 92 % 1.73 C
80 26-04-2020 06:35:00 2.9 C 93 % 1.88 C
81 26-04-2020 06:40:00 2.9 C 93 % 1.88 C
82 26-04-2020 06:45:00 2.9 C 92 % 1.73 C
83 26-04-2020 06:50:00 2.8 C 93 % 1.78 C
84 26-04-2020 06:55:00 2.8 C 93 % 1.78 C
85 26-04-2020 07:00:00 2.8 C 93 % 1.78 C
86 26-04-2020 07:05:00 2.9 C 93 % 1.88 C
87 26-04-2020 07:10:00 2.9 C 93 % 1.88 C
88 26-04-2020 07:15:00 2.9 C 93 % 1.88 C
89 26-04-2020 07:20:00 3.1 C 93 % 2.08 C
90 26-04-2020 07:25:00 3.1 C 93 % 2.08 C
91 26-04-2020 07:30:00 3.2 C 93 % 2.18 C
92 26-04-2020 07:35:00 3.2 C 93 % 2.18 C
93 26-04-2020 07:40:00 3.2 C 94 % 2.33 C
94 26-04-2020 07:45:00 3.2 C 94 % 2.33 C
95 26-04-2020 07:50:00 3.3 C 94 % 2.43 C
96 26-04-2020 07:55:00 3.3 C 94 % 2.43 C
97 26-04-2020 08:00:00 3.4 C 94 % 2.53 C
98 26-04-2020 08:05:00 3.5 C 94 % 2.63 C
99 26-04-2020 08:10:00 3.6 C 94 % 2.73 C
100 26-04-2020 08:15:00 3.7 C 94 % 2.83 C
Sensor: Nr:Datum:Temp:Feuchte:Taupunkt:
Aussen-T/F 101 26-04-2020 08:20:00 3.8 C 94 % 2.93 C
102 26-04-2020 08:25:00 3.8 C 94 % 2.93 C
103 26-04-2020 08:30:00 3.9 C 94 % 3.02 C
104 26-04-2020 08:35:00 4.1 C 94 % 3.22 C
105 26-04-2020 08:40:00 4.2 C 94 % 3.32 C
106 26-04-2020 08:45:00 4.3 C 95 % 3.57 C
107 26-04-2020 08:50:00 4.4 C 95 % 3.67 C
108 26-04-2020 08:55:00 4.6 C 95 % 3.87 C
109 26-04-2020 09:00:00 4.7 C 95 % 3.97 C
110 26-04-2020 09:05:00 4.9 C 95 % 4.17 C
111 26-04-2020 09:10:00 5.1 C 95 % 4.37 C
112 26-04-2020 09:15:00 5.2 C 95 % 4.47 C
113 26-04-2020 09:20:00 5.3 C 95 % 4.57 C
114 26-04-2020 09:25:00 5.5 C 95 % 4.76 C
115 26-04-2020 09:30:00 5.7 C 95 % 4.96 C
116 26-04-2020 09:35:00 5.8 C 95 % 5.06 C
117 26-04-2020 09:40:00 6 C 95 % 5.26 C
118 26-04-2020 09:45:00 6.2 C 95 % 5.46 C
119 26-04-2020 09:50:00 6.4 C 95 % 5.66 C
120 26-04-2020 09:55:00 6.6 C 95 % 5.86 C
121 26-04-2020 10:00:00 6.8 C 95 % 6.06 C
122 26-04-2020 10:05:00 6.9 C 94 % 6 C
123 26-04-2020 10:10:00 7.2 C 94 % 6.3 C
124 26-04-2020 10:15:00 7.3 C 93 % 6.25 C
125 26-04-2020 10:20:00 7.6 C 93 % 6.54 C
Sensor: Nr:Datum:Temp:Feuchte:Taupunkt:
Aussen-T/F 126 26-04-2020 10:25:00 7.8 C 92 % 6.58 C
127 26-04-2020 10:30:00 8.2 C 91 % 6.82 C
128 26-04-2020 10:35:00 8.4 C 90 % 6.86 C
129 26-04-2020 10:40:00 8.7 C 89 % 6.99 C
130 26-04-2020 10:45:00 8.9 C 87 % 6.86 C
131 26-04-2020 10:50:00 9.3 C 85 % 6.91 C
132 26-04-2020 10:55:00 9.7 C 85 % 7.3 C
133 26-04-2020 11:00:00 10.1 C 84 % 7.52 C
134 26-04-2020 11:05:00 10.5 C 83 % 7.74 C
135 26-04-2020 11:10:00 10.9 C 79 % 7.41 C
136 26-04-2020 11:15:00 11.3 C 75 % 7.04 C
137 26-04-2020 11:20:00 11.8 C 72 % 6.92 C
138 26-04-2020 11:25:00 12.3 C 72 % 7.4 C
139 26-04-2020 11:30:00 12.6 C 70 % 7.28 C
140 26-04-2020 11:35:00 12.8 C 67 % 6.83 C
141 26-04-2020 11:40:00 13.2 C 67 % 7.21 C
142 26-04-2020 11:45:00 13.5 C 65 % 7.06 C
143 26-04-2020 11:50:00 13.7 C 63 % 6.79 C
144 26-04-2020 11:55:00 13.9 C 61 % 6.51 C
145 26-04-2020 12:00:00 14.2 C 60 % 6.56 C
146 26-04-2020 12:05:00 14.4 C 59 % 6.5 C
147 26-04-2020 12:10:00 14.6 C 57 % 6.19 C
148 26-04-2020 12:15:00 14.8 C 55 % 5.86 C
149 26-04-2020 12:20:00 15.1 C 53 % 5.6 C
150 26-04-2020 12:25:00 15.3 C 52 % 5.51 C
Sensor: Nr:Datum:Temp:Feuchte:Taupunkt:
Aussen-T/F 151 26-04-2020 12:30:00 15.4 C 52 % 5.61 C
152 26-04-2020 12:35:00 15.6 C 52 % 5.79 C
153 26-04-2020 12:40:00 15.7 C 53 % 6.16 C
154 26-04-2020 12:45:00 15.8 C 51 % 5.69 C
155 26-04-2020 12:50:00 16.1 C 47 % 4.8 C
156 26-04-2020 12:55:00 16.2 C 48 % 5.19 C
157 26-04-2020 13:00:00 16.3 C 48 % 5.28 C
158 26-04-2020 13:05:00 16.3 C 48 % 5.28 C
159 26-04-2020 13:10:00 16.6 C 47 % 5.25 C
160 26-04-2020 13:15:00 16.8 C 46 % 5.13 C
161 26-04-2020 13:20:00 16.8 C 46 % 5.13 C
162 26-04-2020 13:25:00 16.8 C 46 % 5.13 C
163 26-04-2020 13:30:00 16.9 C 45 % 4.9 C
164 26-04-2020 13:35:00 17 C 46 % 5.31 C
165 26-04-2020 13:40:00 17.2 C 47 % 5.8 C
166 26-04-2020 13:45:00 17.3 C 44 % 4.94 C
167 26-04-2020 13:50:00 17.4 C 42 % 4.37 C
168 26-04-2020 13:55:00 17.4 C 42 % 4.37 C
169 26-04-2020 14:00:00 17.4 C 43 % 4.71 C
170 26-04-2020 14:05:00 17.5 C 44 % 5.13 C
171 26-04-2020 14:10:00 17.6 C 44 % 5.22 C
172 26-04-2020 14:15:00 17.7 C 46 % 5.95 C
173 26-04-2020 14:20:00 17.7 C 45 % 5.63 C
174 26-04-2020 14:25:00 17.7 C 46 % 5.95 C
175 26-04-2020 14:30:00 17.8 C 46 % 6.04 C
Sensor: Nr:Datum:Temp:Feuchte:Taupunkt:
Aussen-T/F 176 26-04-2020 14:35:00 17.9 C 44 % 5.49 C
177 26-04-2020 14:40:00 17.9 C 43 % 5.16 C
178 26-04-2020 14:45:00 18 C 44 % 5.58 C
179 26-04-2020 14:50:00 18.2 C 43 % 5.43 C
180 26-04-2020 14:55:00 18.2 C 44 % 5.76 C
181 26-04-2020 15:00:00 18.2 C 41 % 4.75 C
182 26-04-2020 15:05:00 18.3 C 43 % 5.52 C
183 26-04-2020 15:10:00 18.6 C 41 % 5.1 C
184 26-04-2020 15:15:00 18.9 C 40 % 5.02 C
185 26-04-2020 15:20:00 19.1 C 41 % 5.55 C
186 26-04-2020 15:25:00 19.3 C 40 % 5.38 C
187 26-04-2020 15:30:00 19.3 C 39 % 5.01 C
188 26-04-2020 15:35:00 19.3 C 40 % 5.38 C
189 26-04-2020 15:40:00 19.5 C 40 % 5.56 C
190 26-04-2020 15:45:00 19.4 C 39 % 5.1 C
191 26-04-2020 15:50:00 19.5 C 39 % 5.19 C
192 26-04-2020 15:55:00 19.9 C 39 % 5.55 C
193 26-04-2020 16:00:00 20.3 C 38 % 5.53 C
194 26-04-2020 16:05:00 20.5 C 37 % 5.32 C
195 26-04-2020 16:10:00 20.6 C 37 % 5.41 C
196 26-04-2020 16:15:00 20.6 C 36 % 5.02 C
197 26-04-2020 16:20:00 20.9 C 37 % 5.68 C
198 26-04-2020 16:25:00 21.3 C 34 % 4.82 C
199 26-04-2020 16:30:00 21.3 C 32 % 3.95 C
200 26-04-2020 16:35:00 21.4 C 34 % 4.91 C
Sensor: Nr:Datum:Temp:Feuchte:Taupunkt:
Aussen-T/F 201 26-04-2020 16:40:00 21.6 C 33 % 4.65 C
202 26-04-2020 16:45:00 21.7 C 33 % 4.74 C
203 26-04-2020 16:50:00 21.7 C 34 % 5.17 C
204 26-04-2020 16:55:00 21.7 C 33 % 4.74 C
205 26-04-2020 17:00:00 21.6 C 32 % 4.21 C
206 26-04-2020 17:05:00 21.8 C 34 % 5.26 C
207 26-04-2020 17:10:00 22.1 C 31 % 4.2 C
208 26-04-2020 17:15:00 22.1 C 31 % 4.2 C
209 26-04-2020 17:20:00 22.2 C 33 % 5.18 C
210 26-04-2020 17:25:00 22.4 C 30 % 3.99 C
211 26-04-2020 17:30:00 22.5 C 31 % 4.54 C
212 26-04-2020 17:35:00 22.6 C 28 % 3.19 C
213 26-04-2020 17:40:00 22.9 C 29 % 3.94 C
214 26-04-2020 17:45:00 22.8 C 26 % 2.31 C
215 26-04-2020 17:50:00 22.5 C 27 % 2.59 C
216 26-04-2020 17:55:00 22.5 C 29 % 3.6 C
217 26-04-2020 18:00:00 22.4 C 27 % 2.5 C
218 26-04-2020 18:05:00 22.4 C 27 % 2.5 C
219 26-04-2020 18:10:00 22.5 C 29 % 3.6 C
220 26-04-2020 18:15:00 22.6 C 28 % 3.19 C
221 26-04-2020 18:20:00 22.8 C 28 % 3.36 C
222 26-04-2020 18:25:00 22.8 C 28 % 3.36 C
223 26-04-2020 18:30:00 23 C 28 % 3.53 C
224 26-04-2020 18:35:00 22.9 C 26 % 2.4 C
225 26-04-2020 18:40:00 22.9 C 26 % 2.4 C
Sensor: Nr:Datum:Temp:Feuchte:Taupunkt:
Aussen-T/F 226 26-04-2020 18:45:00 22.8 C 27 % 2.84 C
227 26-04-2020 18:50:00 22.6 C 26 % 2.14 C
228 26-04-2020 18:55:00 22.5 C 26 % 2.06 C
229 26-04-2020 19:00:00 22.4 C 27 % 2.5 C
230 26-04-2020 19:05:00 22.3 C 28 % 2.93 C
231 26-04-2020 19:10:00 22.2 C 27 % 2.33 C
232 26-04-2020 19:15:00 21.8 C 27 % 1.99 C
233 26-04-2020 19:20:00 21.4 C 28 % 2.16 C
234 26-04-2020 19:25:00 21 C 28 % 1.81 C
235 26-04-2020 19:30:00 20.7 C 28 % 1.56 C
236 26-04-2020 19:35:00 20.6 C 28 % 1.47 C
237 26-04-2020 19:40:00 20.4 C 29 % 1.79 C
238 26-04-2020 19:45:00 20.3 C 38 % 5.53 C
239 26-04-2020 19:50:00 20.2 C 39 % 5.82 C
240 26-04-2020 19:55:00 19.9 C 41 % 6.27 C
241 26-04-2020 20:00:00 19.6 C 41 % 6 C
242 26-04-2020 20:05:00 19.2 C 41 % 5.64 C
243 26-04-2020 20:10:00 18.7 C 42 % 5.54 C
244 26-04-2020 20:15:00 18.3 C 43 % 5.52 C
245 26-04-2020 20:20:00 17.7 C 43 % 4.98 C
246 26-04-2020 20:25:00 17.1 C 44 % 4.76 C
247 26-04-2020 20:30:00 16.6 C 45 % 4.63 C
248 26-04-2020 20:35:00 16.1 C 46 % 4.49 C
249 26-04-2020 20:40:00 15.7 C 45 % 3.81 C
250 26-04-2020 20:45:00 15.3 C 44 % 3.13 C
Sensor: Nr:Datum:Temp:Feuchte:Taupunkt:
Aussen-T/F 251 26-04-2020 20:50:00 15.1 C 47 % 3.88 C
252 26-04-2020 20:55:00 14.8 C 48 % 3.91 C
253 26-04-2020 21:00:00 14.4 C 48 % 3.54 C
254 26-04-2020 21:05:00 14.2 C 48 % 3.36 C
255 26-04-2020 21:10:00 13.9 C 51 % 3.94 C
256 26-04-2020 21:15:00 13.7 C 52 % 4.03 C
257 26-04-2020 21:20:00 13.6 C 54 % 4.48 C
258 26-04-2020 21:25:00 13.3 C 55 % 4.46 C
259 26-04-2020 21:30:00 13.1 C 56 % 4.53 C
260 26-04-2020 21:35:00 13 C 57 % 4.69 C
261 26-04-2020 21:40:00 12.9 C 58 % 4.85 C
262 26-04-2020 21:45:00 12.8 C 59 % 5 C
263 26-04-2020 21:50:00 12.6 C 60 % 5.05 C
264 26-04-2020 21:55:00 12.4 C 60 % 4.86 C
265 26-04-2020 22:00:00 12.3 C 61 % 5.01 C
266 26-04-2020 22:05:00 12.2 C 63 % 5.37 C
267 26-04-2020 22:10:00 12 C 63 % 5.18 C
268 26-04-2020 22:15:00 11.8 C 64 % 5.22 C
269 26-04-2020 22:20:00 11.6 C 65 % 5.25 C
270 26-04-2020 22:25:00 11.4 C 66 % 5.28 C
271 26-04-2020 22:30:00 11.3 C 66 % 5.19 C
272 26-04-2020 22:35:00 11.1 C 67 % 5.21 C
273 26-04-2020 22:40:00 10.9 C 67 % 5.02 C
274 26-04-2020 22:45:00 10.8 C 68 % 5.14 C
275 26-04-2020 22:50:00 10.6 C 69 % 5.16 C
Sensor: Nr:Datum:Temp:Feuchte:Taupunkt:
Aussen-T/F 276 26-04-2020 22:55:00 10.4 C 68 % 4.76 C
277 26-04-2020 23:00:00 10.2 C 69 % 4.78 C
278 26-04-2020 23:05:00 10.1 C 69 % 4.68 C
279 26-04-2020 23:10:00 9.9 C 70 % 4.69 C
280 26-04-2020 23:15:00 9.8 C 70 % 4.6 C
281 26-04-2020 23:20:00 9.7 C 70 % 4.5 C
282 26-04-2020 23:25:00 9.6 C 70 % 4.41 C
283 26-04-2020 23:30:00 9.4 C 70 % 4.21 C
284 26-04-2020 23:35:00 9.4 C 70 % 4.21 C
285 26-04-2020 23:40:00 9.3 C 70 % 4.12 C
286 26-04-2020 23:45:00 9.3 C 70 % 4.12 C
287 26-04-2020 23:50:00 9.2 C 71 % 4.22 C
288 26-04-2020 23:55:00 9.1 C 70 % 3.93 C
289 27-04-2020 00:00:00 9 C 72 % 4.23 C
290 27-04-2020 00:05:00 8.9 C 72 % 4.14 C
291 27-04-2020 00:10:00 8.8 C 73 % 4.24 C
292 27-04-2020 00:15:00 8.7 C 73 % 4.14 C
293 27-04-2020 00:20:00 8.6 C 73 % 4.04 C
294 27-04-2020 00:25:00 8.6 C 73 % 4.04 C
295 27-04-2020 00:30:00 8.4 C 74 % 4.04 C
296 27-04-2020 00:35:00 8.3 C 75 % 4.14 C
297 27-04-2020 00:40:00 8.3 C 75 % 4.14 C
298 27-04-2020 00:45:00 8.2 C 75 % 4.04 C
299 27-04-2020 00:50:00 8.1 C 76 % 4.13 C
300 27-04-2020 00:55:00 7.9 C 76 % 3.94 C
Sensor: Nr:Datum:Temp:Feuchte:Taupunkt:
Aussen-T/F 301 27-04-2020 01:00:00 7.9 C 76 % 3.94 C
302 27-04-2020 01:05:00 7.8 C 77 % 4.03 C
303 27-04-2020 01:10:00 7.8 C 77 % 4.03 C
304 27-04-2020 01:15:00 7.7 C 77 % 3.93 C
305 27-04-2020 01:20:00 7.6 C 78 % 4.02 C
306 27-04-2020 01:25:00 7.6 C 78 % 4.02 C
307 27-04-2020 01:30:00 7.4 C 78 % 3.82 C
308 27-04-2020 01:35:00 7.3 C 79 % 3.91 C
309 27-04-2020 01:40:00 7.3 C 79 % 3.91 C
310 27-04-2020 01:45:00 7.2 C 79 % 3.81 C
311 27-04-2020 01:50:00 7.2 C 80 % 3.99 C
312 27-04-2020 01:55:00 7.1 C 79 % 3.71 C
313 27-04-2020 02:00:00 7 C 80 % 3.79 C
314 27-04-2020 02:05:00 6.9 C 80 % 3.7 C
315 27-04-2020 02:10:00 6.9 C 80 % 3.7 C
316 27-04-2020 02:15:00 6.8 C 81 % 3.77 C
317 27-04-2020 02:20:00 6.8 C 81 % 3.77 C
318 27-04-2020 02:25:00 6.7 C 81 % 3.68 C
319 27-04-2020 02:30:00 6.6 C 81 % 3.58 C
320 27-04-2020 02:35:00 6.6 C 82 % 3.75 C
321 27-04-2020 02:40:00 6.5 C 82 % 3.66 C
322 27-04-2020 02:45:00 6.5 C 82 % 3.66 C
323 27-04-2020 02:50:00 6.4 C 82 % 3.56 C
324 27-04-2020 02:55:00 6.4 C 83 % 3.73 C
325 27-04-2020 03:00:00 6.3 C 83 % 3.63 C
Sensor: Nr:Datum:Temp:Feuchte:Taupunkt:
Aussen-T/F 326 27-04-2020 03:05:00 6.3 C 83 % 3.63 C
327 27-04-2020 03:10:00 6.2 C 83 % 3.53 C
328 27-04-2020 03:15:00 6.1 C 84 % 3.61 C
329 27-04-2020 03:20:00 6.1 C 84 % 3.61 C
330 27-04-2020 03:25:00 6.1 C 84 % 3.61 C
331 27-04-2020 03:30:00 6 C 84 % 3.51 C
332 27-04-2020 03:35:00 6 C 85 % 3.67 C
333 27-04-2020 03:40:00 6.1 C 85 % 3.77 C
334 27-04-2020 03:45:00 6.1 C 85 % 3.77 C
335 27-04-2020 03:50:00 6.1 C 85 % 3.77 C
336 27-04-2020 03:55:00 6.1 C 85 % 3.77 C
337 27-04-2020 04:00:00 6 C 85 % 3.67 C
338 27-04-2020 04:05:00 5.9 C 84 % 3.41 C
339 27-04-2020 04:10:00 5.8 C 85 % 3.48 C
340 27-04-2020 04:15:00 5.7 C 85 % 3.38 C
341 27-04-2020 04:20:00 5.6 C 85 % 3.28 C
342 27-04-2020 04:25:00 5.4 C 86 % 3.25 C
343 27-04-2020 04:30:00 5.3 C 86 % 3.15 C
344 27-04-2020 04:35:00 5.2 C 87 % 3.22 C
345 27-04-2020 04:40:00 5.1 C 87 % 3.12 C
346 27-04-2020 04:45:00 4.9 C 87 % 2.92 C
347 27-04-2020 04:50:00 4.9 C 88 % 3.08 C
348 27-04-2020 04:55:00 4.8 C 88 % 2.99 C
349 27-04-2020 05:00:00 4.8 C 88 % 2.99 C
350 27-04-2020 05:05:00 4.8 C 88 % 2.99 C
Sensor: Nr:Datum:Temp:Feuchte:Taupunkt:
Aussen-T/F 351 27-04-2020 05:10:00 4.8 C 89 % 3.14 C
352 27-04-2020 05:15:00 4.7 C 89 % 3.05 C
353 27-04-2020 05:20:00 4.7 C 88 % 2.89 C
354 27-04-2020 05:25:00 4.6 C 88 % 2.79 C
355 27-04-2020 05:30:00 4.4 C 89 % 2.75 C
356 27-04-2020 05:35:00 4.4 C 89 % 2.75 C
357 27-04-2020 05:40:00 4.3 C 89 % 2.65 C
358 27-04-2020 05:45:00 4.3 C 89 % 2.65 C
359 27-04-2020 05:50:00 4.2 C 90 % 2.71 C
360 27-04-2020 05:55:00 4.2 C 90 % 2.71 C
361 27-04-2020 06:00:00 4.2 C 90 % 2.71 C
362 27-04-2020 06:05:00 4.2 C 90 % 2.71 C
363 27-04-2020 06:10:00 4.2 C 90 % 2.71 C
364 27-04-2020 06:15:00 4.2 C 91 % 2.87 C
365 27-04-2020 06:20:00 4.2 C 91 % 2.87 C
366 27-04-2020 06:25:00 4.2 C 91 % 2.87 C
367 27-04-2020 06:30:00 4.2 C 91 % 2.87 C
368 27-04-2020 06:35:00 4.3 C 91 % 2.96 C
369 27-04-2020 06:40:00 4.3 C 91 % 2.96 C
370 27-04-2020 06:45:00 4.3 C 91 % 2.96 C
371 27-04-2020 06:50:00 4.3 C 91 % 2.96 C
372 27-04-2020 06:55:00 4.2 C 91 % 2.87 C
373 27-04-2020 07:00:00 4.3 C 91 % 2.96 C
374 27-04-2020 07:05:00 4.3 C 91 % 2.96 C
375 27-04-2020 07:10:00 4.3 C 91 % 2.96 C
Sensor: Nr:Datum:Temp:Feuchte:Taupunkt:
Aussen-T/F 376 27-04-2020 07:15:00 4.3 C 91 % 2.96 C
377 27-04-2020 07:20:00 4.3 C 92 % 3.12 C
378 27-04-2020 07:25:00 4.4 C 92 % 3.22 C
379 27-04-2020 07:30:00 4.4 C 92 % 3.22 C
380 27-04-2020 07:35:00 4.5 C 92 % 3.32 C
381 27-04-2020 07:40:00 4.6 C 92 % 3.42 C
382 27-04-2020 07:45:00 4.7 C 92 % 3.51 C
383 27-04-2020 07:50:00 4.8 C 92 % 3.61 C
384 27-04-2020 07:55:00 4.9 C 92 % 3.71 C
385 27-04-2020 08:00:00 5 C 92 % 3.81 C
386 27-04-2020 08:05:00 5.1 C 92 % 3.91 C
387 27-04-2020 08:10:00 5.1 C 92 % 3.91 C
388 27-04-2020 08:15:00 5.2 C 92 % 4.01 C
389 27-04-2020 08:20:00 5.3 C 92 % 4.11 C
390 27-04-2020 08:25:00 5.3 C 92 % 4.11 C
391 27-04-2020 08:30:00 5.4 C 92 % 4.21 C
392 27-04-2020 08:35:00 5.5 C 92 % 4.31 C
393 27-04-2020 08:40:00 5.6 C 92 % 4.41 C
394 27-04-2020 08:45:00 5.8 C 92 % 4.6 C
395 27-04-2020 08:50:00 5.9 C 92 % 4.7 C
396 27-04-2020 08:55:00 6.1 C 92 % 4.9 C
397 27-04-2020 09:00:00 6.2 C 92 % 5 C
398 27-04-2020 09:05:00 6.3 C 92 % 5.1 C
399 27-04-2020 09:10:00 6.4 C 91 % 5.04 C
400 27-04-2020 09:15:00 6.5 C 92 % 5.3 C
Sensor: Nr:Datum:Temp:Feuchte:Taupunkt:
Aussen-T/F 401 27-04-2020 09:20:00 6.6 C 91 % 5.24 C
402 27-04-2020 09:25:00 6.8 C 91 % 5.44 C
403 27-04-2020 09:30:00 6.9 C 91 % 5.54 C
404 27-04-2020 09:35:00 7.1 C 91 % 5.73 C
405 27-04-2020 09:40:00 7.3 C 91 % 5.93 C
406 27-04-2020 09:45:00 7.4 C 91 % 6.03 C
407 27-04-2020 09:50:00 7.7 C 91 % 6.33 C
408 27-04-2020 09:55:00 7.8 C 91 % 6.43 C
409 27-04-2020 10:00:00 8.1 C 91 % 6.72 C
410 27-04-2020 10:05:00 8.3 C 91 % 6.92 C
411 27-04-2020 10:10:00 8.6 C 91 % 7.22 C
412 27-04-2020 10:15:00 8.8 C 90 % 7.25 C
413 27-04-2020 10:20:00 9.2 C 89 % 7.48 C
414 27-04-2020 10:25:00 9.7 C 88 % 7.81 C
415 27-04-2020 10:30:00 10 C 87 % 7.94 C
416 27-04-2020 10:35:00 10.3 C 85 % 7.89 C
417 27-04-2020 10:40:00 10.6 C 84 % 8.01 C
418 27-04-2020 10:45:00 10.9 C 82 % 7.95 C
419 27-04-2020 10:50:00 11.6 C 79 % 8.09 C
420 27-04-2020 10:55:00 12.1 C 78 % 8.38 C
421 27-04-2020 11:00:00 12.7 C 72 % 7.79 C
422 27-04-2020 11:05:00 13.4 C 67 % 7.4 C
423 27-04-2020 11:10:00 14.2 C 63 % 7.27 C
424 27-04-2020 11:15:00 14.8 C 63 % 7.83 C
425 27-04-2020 11:20:00 15.2 C 62 % 7.98 C
Sensor: Nr:Datum:Temp:Feuchte:Taupunkt:
Aussen-T/F 426 27-04-2020 11:25:00 15.6 C 57 % 7.12 C
427 27-04-2020 11:30:00 15.9 C 56 % 7.14 C
428 27-04-2020 11:35:00 16.2 C 57 % 7.68 C
429 27-04-2020 11:40:00 16.4 C 52 % 6.53 C
430 27-04-2020 11:45:00 16.7 C 52 % 6.81 C
431 27-04-2020 11:50:00 16.9 C 54 % 7.54 C
432 27-04-2020 11:55:00 17 C 53 % 7.36 C
433 27-04-2020 12:00:00 17.2 C 52 % 7.27 C
434 27-04-2020 12:05:00 17.3 C 52 % 7.36 C
435 27-04-2020 12:10:00 17.6 C 51 % 7.35 C
436 27-04-2020 12:15:00 17.8 C 51 % 7.54 C
437 27-04-2020 12:20:00 17.9 C 49 % 7.05 C
438 27-04-2020 12:25:00 18.1 C 48 % 6.93 C
439 27-04-2020 12:30:00 18.1 C 49 % 7.23 C
440 27-04-2020 12:35:00 18.2 C 47 % 6.71 C
441 27-04-2020 12:40:00 18.3 C 46 % 6.49 C
442 27-04-2020 12:45:00 18.4 C 46 % 6.58 C
443 27-04-2020 12:50:00 18.6 C 45 % 6.45 C
444 27-04-2020 12:55:00 18.8 C 44 % 6.3 C
445 27-04-2020 13:00:00 19.1 C 41 % 5.55 C
446 27-04-2020 13:05:00 19.3 C 43 % 6.42 C
447 27-04-2020 13:10:00 19.3 C 43 % 6.42 C
448 27-04-2020 13:15:00 19.4 C 41 % 5.82 C
449 27-04-2020 13:20:00 19.4 C 41 % 5.82 C
450 27-04-2020 13:25:00 19.6 C 40 % 5.64 C
Sensor: Nr:Datum:Temp:Feuchte:Taupunkt:
Aussen-T/F 451 27-04-2020 13:30:00 19.6 C 42 % 6.35 C
452 27-04-2020 13:35:00 19.8 C 41 % 6.18 C
453 27-04-2020 13:40:00 19.8 C 41 % 6.18 C
454 27-04-2020 13:45:00 19.9 C 40 % 5.91 C
455 27-04-2020 13:50:00 20 C 39 % 5.64 C
456 27-04-2020 13:55:00 20 C 40 % 6 C
457 27-04-2020 14:00:00 20.2 C 40 % 6.18 C
458 27-04-2020 14:05:00 20.4 C 39 % 5.99 C
459 27-04-2020 14:10:00 20.6 C 39 % 6.17 C
460 27-04-2020 14:15:00 20.7 C 40 % 6.63 C
461 27-04-2020 14:20:00 20.7 C 40 % 6.63 C
462 27-04-2020 14:25:00 20.7 C 39 % 6.26 C
463 27-04-2020 14:30:00 20.8 C 38 % 5.97 C
464 27-04-2020 14:35:00 20.9 C 38 % 6.06 C
465 27-04-2020 14:40:00 20.9 C 40 % 6.81 C
466 27-04-2020 14:45:00 21.1 C 39 % 6.62 C
467 27-04-2020 14:50:00 21.2 C 38 % 6.33 C
468 27-04-2020 14:55:00 21.4 C 37 % 6.12 C
469 27-04-2020 15:00:00 21.7 C 36 % 5.99 C
470 27-04-2020 15:05:00 21.8 C 36 % 6.08 C
471 27-04-2020 15:10:00 21.9 C 36 % 6.17 C
472 27-04-2020 15:15:00 22.1 C 36 % 6.34 C
473 27-04-2020 15:20:00 22.2 C 36 % 6.43 C
474 27-04-2020 15:25:00 22.2 C 35 % 6.02 C
475 27-04-2020 15:30:00 22.3 C 35 % 6.11 C
Sensor: Nr:Datum:Temp:Feuchte:Taupunkt:
Aussen-T/F 476 27-04-2020 15:35:00 22.5 C 34 % 5.87 C
477 27-04-2020 15:40:00 22.8 C 33 % 5.7 C
478 27-04-2020 15:45:00 23.1 C 32 % 5.52 C
479 27-04-2020 15:50:00 23.2 C 35 % 6.9 C
480 27-04-2020 15:55:00 23.2 C 33 % 6.05 C
481 27-04-2020 16:00:00 23.3 C 34 % 6.57 C
482 27-04-2020 16:05:00 23.2 C 32 % 5.61 C
483 27-04-2020 16:10:00 23.3 C 33 % 6.14 C
484 27-04-2020 16:15:00 23.1 C 32 % 5.52 C
485 27-04-2020 16:20:00 22.7 C 33 % 5.61 C
486 27-04-2020 16:25:00 22.5 C 34 % 5.87 C
487 27-04-2020 16:30:00 22.2 C 35 % 6.02 C
488 27-04-2020 16:35:00 22.3 C 37 % 6.92 C
489 27-04-2020 16:40:00 22.6 C 35 % 6.38 C
490 27-04-2020 16:45:00 22.6 C 35 % 6.38 C
491 27-04-2020 16:50:00 22.4 C 36 % 6.61 C
492 27-04-2020 16:55:00 22.2 C 36 % 6.43 C
493 27-04-2020 17:00:00 22 C 37 % 6.65 C
494 27-04-2020 17:05:00 21.9 C 36 % 6.17 C
495 27-04-2020 17:10:00 21.8 C 37 % 6.48 C
496 27-04-2020 17:15:00 21.7 C 38 % 6.77 C
497 27-04-2020 17:20:00 21.6 C 38 % 6.69 C
498 27-04-2020 17:25:00 21.4 C 39 % 6.89 C
499 27-04-2020 17:30:00 21.3 C 39 % 6.8 C
500 27-04-2020 17:35:00 21.2 C 39 % 6.71 C
Sensor: Nr:Datum:Temp:Feuchte:Taupunkt:
Aussen-T/F 501 27-04-2020 17:40:00 21.1 C 41 % 7.35 C
502 27-04-2020 17:45:00 21.1 C 42 % 7.7 C
503 27-04-2020 17:50:00 21.1 C 41 % 7.35 C
504 27-04-2020 17:55:00 21.3 C 41 % 7.53 C
505 27-04-2020 18:00:00 21.4 C 42 % 7.97 C
506 27-04-2020 18:05:00 21.3 C 39 % 6.8 C
507 27-04-2020 18:10:00 21.2 C 43 % 8.13 C
508 27-04-2020 18:15:00 21.4 C 44 % 8.65 C
509 27-04-2020 18:20:00 22.2 C 42 % 8.69 C
510 27-04-2020 18:25:00 22.9 C 38 % 7.84 C
511 27-04-2020 18:30:00 23.3 C 35 % 6.99 C
512 27-04-2020 18:35:00 23.3 C 36 % 7.4 C
513 27-04-2020 18:40:00 23.4 C 36 % 7.49 C
514 27-04-2020 18:45:00 23.5 C 35 % 7.17 C
515 27-04-2020 18:50:00 23.6 C 36 % 7.67 C
516 27-04-2020 18:55:00 23.6 C 36 % 7.67 C
517 27-04-2020 19:00:00 22.9 C 39 % 8.22 C
518 27-04-2020 19:05:00 22.4 C 44 % 9.56 C
519 27-04-2020 19:10:00 21.8 C 43 % 8.67 C
520 27-04-2020 19:15:00 21.2 C 47 % 9.45 C
521 27-04-2020 19:20:00 20.9 C 48 % 9.49 C
522 27-04-2020 19:25:00 20.6 C 48 % 9.21 C
523 27-04-2020 19:30:00 20.2 C 49 % 9.15 C
524 27-04-2020 19:35:00 19.7 C 49 % 8.7 C
525 27-04-2020 19:40:00 19.2 C 51 % 8.83 C
Sensor: Nr:Datum:Temp:Feuchte:Taupunkt:
Aussen-T/F 526 27-04-2020 19:45:00 18.9 C 52 % 8.84 C
527 27-04-2020 19:50:00 18.6 C 52 % 8.56 C
528 27-04-2020 19:55:00 18.2 C 54 % 8.75 C
529 27-04-2020 20:00:00 17.9 C 54 % 8.47 C
530 27-04-2020 20:05:00 17.6 C 55 % 8.46 C
531 27-04-2020 20:10:00 17.4 C 56 % 8.54 C
532 27-04-2020 20:15:00 17.2 C 57 % 8.62 C
533 27-04-2020 20:20:00 17 C 57 % 8.43 C
534 27-04-2020 20:25:00 16.8 C 58 % 8.5 C
535 27-04-2020 20:30:00 16.5 C 59 % 8.47 C
536 27-04-2020 20:35:00 16.2 C 60 % 8.43 C
537 27-04-2020 20:40:00 15.8 C 61 % 8.3 C
538 27-04-2020 20:45:00 15.6 C 62 % 8.35 C
539 27-04-2020 20:50:00 15.4 C 62 % 8.16 C
540 27-04-2020 20:55:00 15.2 C 63 % 8.21 C
541 27-04-2020 21:00:00 15.1 C 63 % 8.12 C
542 27-04-2020 21:05:00 15 C 64 % 8.25 C
543 27-04-2020 21:10:00 14.9 C 64 % 8.16 C
544 27-04-2020 21:15:00 14.8 C 65 % 8.29 C
545 27-04-2020 21:20:00 14.8 C 66 % 8.52 C
546 27-04-2020 21:25:00 14.7 C 66 % 8.42 C
547 27-04-2020 21:30:00 14.6 C 66 % 8.33 C
548 27-04-2020 21:35:00 14.4 C 66 % 8.14 C
549 27-04-2020 21:40:00 14.3 C 67 % 8.26 C
550 27-04-2020 21:45:00 14.2 C 68 % 8.39 C
Sensor: Nr:Datum:Temp:Feuchte:Taupunkt:
Aussen-T/F 551 27-04-2020 21:50:00 14 C 68 % 8.19 C
552 27-04-2020 21:55:00 13.8 C 68 % 8 C
553 27-04-2020 22:00:00 13.7 C 69 % 8.12 C
554 27-04-2020 22:05:00 13.6 C 69 % 8.03 C
555 27-04-2020 22:10:00 13.6 C 70 % 8.24 C
556 27-04-2020 22:15:00 13.5 C 70 % 8.14 C
557 27-04-2020 22:20:00 13.4 C 71 % 8.26 C
558 27-04-2020 22:25:00 13.3 C 71 % 8.16 C
559 27-04-2020 22:30:00 13.2 C 72 % 8.27 C
560 27-04-2020 22:35:00 13.1 C 72 % 8.17 C
561 27-04-2020 22:40:00 12.9 C 72 % 7.98 C
562 27-04-2020 22:45:00 12.8 C 73 % 8.09 C
563 27-04-2020 22:50:00 12.7 C 73 % 7.99 C
564 27-04-2020 22:55:00 12.6 C 73 % 7.89 C
565 27-04-2020 23:00:00 12.6 C 73 % 7.89 C
566 27-04-2020 23:05:00 12.5 C 74 % 8 C
567 27-04-2020 23:10:00 12.4 C 74 % 7.9 C
568 27-04-2020 23:15:00 12.3 C 74 % 7.8 C
569 27-04-2020 23:20:00 12.3 C 74 % 7.8 C
570 27-04-2020 23:25:00 12.3 C 74 % 7.8 C
571 27-04-2020 23:30:00 12.2 C 75 % 7.91 C
572 27-04-2020 23:35:00 12.1 C 75 % 7.81 C
573 27-04-2020 23:40:00 11.9 C 76 % 7.81 C
574 27-04-2020 23:45:00 11.8 C 76 % 7.71 C
575 27-04-2020 23:50:00 11.6 C 77 % 7.71 C
Sensor: Nr:Datum:Temp:Feuchte:Taupunkt:
Aussen-T/F 576 27-04-2020 23:55:00 11.4 C 78 % 7.71 C

Legende:
   Min
   Max


Maximal/Minimal-Werte vom 26.04.2020 - 27.04.2020

Sensor Min Max Avg
Temp
(Aussen-T/F)
2.8 °C
26-04-2020  06:50:00
23.6 °C
27-04-2020  18:50:00
12.17 °C
Feuchte
(Aussen-T/F)
26 %
26-04-2020  17:45:00
95 %
26-04-2020  08:45:00
66.49 %
Taupunkt
(Aussen-T/F)
1.47 C
26-04-2020  19:35:00
9.56 C
27-04-2020  19:05:00
4.97 C

Die Daten stammen von einer Davis Vantage Pro 2 Wetter-Station und werden unter Linux mit der Software wview2wettercgi und aufbereitet. Alle Angaben erfolgen ohne Gewähr für ihre Vollständigkeit oder Richtigkeit.
Kontakt: Rainer Krienke krienke@uni-koblenz.de . Meine Webseiten an der Uni Koblenz oder privat.
Version: $Revision: 0.78 $